Regional Weather Roundup
Issued by NWS

Home | Current Version | Previous Version | Graphics & Text | Print | Product List | Glossary On
Versions: 1 2 3 4 5 6 7 8 9 10 11 12 13 14 15 16 17 18 19 20 21 22 23 24 25 26 27 28 29 30 31 32 33 34 35 36 37 38 39 40 41 42 43 44 45 46 47 48 49 50
000
ASUS45 KPSR 012110
RWRAZ

ARIZONA HOURLY REGIONAL WEATHER ROUNDUP
NATIONAL WEATHER SERVICE PHOENIX AZ
200 PM MST TUE SEP 01 2015

NOTE: FAIR INDICATES FEW OR NO CLOUDS BELOW 12,000 FEET WITH NO
SIGNIFICANT WEATHER AND/OR OBSTRUCTIONS TO VISIBILITY.

AZZ001>003-036-012200-
NORTHWEST ARIZONA

CITY           SKY/WX    TMP DP  RH WIND       PRES   REMARKS
BULLHEAD CITY  SUNNY    100  55  22 SW15      29.81F
KINGMAN        SUNNY     92  49  22 SW15G25   30.01F
$$

AZZ004>008-015-016-018-012200-
NORTH CENTRAL ARIZONA

CITY           SKY/WX    TMP DP  RH WIND       PRES   REMARKS
GRAND CANYON   SUNNY     78  47  33 SW9       30.24F
WILLIAMS       MOSUNNY   79  45  29 S13G21    30.28F
PRESCOTT       PTSUNNY   82  55  39 E9        30.13F THUNDER
FLAGSTAFF      MOSUNNY   75  44  33 S14G23    30.27F
PAYSON         PTSUNNY   82  55  39 S9G15     30.17F
PAGE           MOSUNNY   88  51  28 N7        30.05F
$$

AZZ009>014-017-012200-
NORTHEAST ARIZONA

CITY           SKY/WX    TMP DP  RH WIND       PRES   REMARKS
WINSLOW        MOSUNNY   83  56  39 SE3       30.12F
SAINT JOHNS    MOSUNNY   82  46  28 CALM      30.17F
WINDOW ROCK    CLOUDY    79  45  29 MISG      30.25F
SHOW LOW       MOSUNNY   73  48  40 CALM      30.24F
$$

AZZ023-012200-
GREATER PHOENIX AREA

CITY           SKY/WX    TMP DP  RH WIND       PRES   REMARKS
PHOENIX        PTSUNNY   97  63  32 S8        29.86F
BUCKEYE        MOSUNNY   97  59  28 E8G18     29.85F
GLENDALE       PTSUNNY   99  61  28 SE8       29.88F
LUKE AFB       MOSUNNY   96  61  30 SE13G18   29.85F
DEER VALLEY    PTSUNNY   95  58  28 S6        29.88F
SCOTTSDALE     PTSUNNY   94  59  31 S6        29.90F
MESA-FALCON    PTSUNNY   95  59  30 VRB7      29.88F
MESA-GATEWAY   MOSUNNY   93  61  33 SE6       29.91F
CHANDLER       PTSUNNY   97  63  32 SE6       29.88F
$$

AZZ027-028-012200-
SOUTHWEST MARICOPA COUNTY AND PINAL COUNTY

CITY           SKY/WX    TMP DP  RH WIND       PRES   REMARKS
CASA GRANDE    MOSUNNY   93  63  36 CALM      29.88F
GILA BEND      PTSUNNY  102  52  18 SE10G16   29.81F
$$

AZZ503-504-507>509-012200-
SOUTHEAST ARIZONA

CITY           SKY/WX    TMP DP  RH WIND       PRES   REMARKS
TUCSON         SUNNY     94  58  29 NE5       29.98F
DAVIS-MONTHAN  SUNNY     92  59  32 W2        29.96F
RYAN FIELD     SUNNY     95  61  31 CALM      29.96F
NOGALES        MOSUNNY   90  54  29 VRB3      30.06
SIERRA VISTA   PTSUNNY   88  51  27 SE6       30.13F
DOUGLAS        PTSUNNY   88  49  25 NW3       30.08F
SAFFORD        PTSUNNY   85  65  51 VRB3      30.03F
$$

AZZ020-021-025-026-031-012200-
SOUTHWEST ARIZONA

CITY           SKY/WX    TMP DP  RH WIND       PRES   REMARKS
YUMA           PTSUNNY  102  62  26 S14G23    29.78F HX 104
$$

CAZ031-033-041-043-047-048-061-012200-
SOUTHERN CALIFORNIA

CITY           SKY/WX    TMP DP  RH WIND       PRES   REMARKS
DOWNTOWN L.A.  MOSUNNY   81  60  48 CALM      29.88F
L.A. AIRPORT   PTSUNNY   76  62  62 SW14G20   29.91S
SAN DIEGO      PTSUNNY   73  61  65 W9        29.94R
BURBANK        SUNNY     83  57  41 S9        29.89F
ONTARIO        PTSUNNY   85  54  34 SW9       29.90F
RIVERSIDE      MOSUNNY   86  57  37 VRB6      29.89F
PALM SPRINGS   SUNNY     98  58  26 MISG      29.81F
EL CENTRO NAS  PTSUNNY  100  67  33 VRB5      29.76F HX 105
IMPERIAL       SUNNY    100  68  35 VRB7      29.74F HX 105
BLYTHE         PTSUNNY  100  65  31 S7G17     29.79F HX 103
NEEDLES        MOSUNNY  101  53  20 SW13G22   29.82F
$$

NVZ020-UTZ003-012200-
SOUTHERN NEVADA-UTAH

CITY           SKY/WX    TMP DP  RH WIND       PRES   REMARKS
LAS VEGAS      MOSUNNY   96  51  21 VRB5      29.84F
SALT LAKE CITY MOSUNNY   89  40  17 S22G28    29.92F
$$

NMZ009-TXZ055-012200-
NEW MEXICO-WEST TEXAS

CITY           SKY/WX    TMP DP  RH WIND       PRES   REMARKS
ALBUQUERQUE    PTSUNNY   88  44  21 W8        30.15F
EL PASO        MOSUNNY   96  39  13 VRB3      30.02F
$$


........................KEY........................
SKY/WX - SKY CONDITION/WEATHER
TMP    - TEMPERATURE IN FAHRENHEIT
DP     - DEW POINT IN FAHRENHEIT
RH     - RELATIVE HUMIDITY IN PERCENT
WIND   - DIRECTION AND SPEED IN MILES PER HOUR (MPH)
VRB    - VARIABLE WIND DIRECTION
PRES   - MEAN SEA LEVEL PRESSURE IN INCHES OF MERCURY
         F - FALLING PRESSURE   R - RISING PRESSURE
         S - STEADY PRESSURE
VSB    - VISIBILITY IN MILES
HX     - HEAT INDEX IN FAHRENHEIT
WCI    - WIND CHILL INDEX IN FAHRENHEIT
TC     - TEMPERATURE IN CELSIUS WHICH IS ALSO KNOWN AS
         TEMPERATURE IN CENTIGRADE
AFB    - AIR FORCE BASE
         LUKE AFB IS LUKE AIR FORCE BASE
         DAVIS-MONTHAN IS DAVIS-MONTHAN AIR FORCE BASE
NAS    - NAVAL AIR STATION
         EL CENTRO NAS IS EL CENTRO NAVAL AIR STATION
N/A    - NOT AVAILABLE



USA.gov is the U.S. government's official web portal to all federal, state and local government web resources and services.